This is the latest recevied weather packets stored in our database for station/object SP9MUF-14. If no packets are shown the sender has not sent any weather packets the latest 10 day(s).
| Time | Temp. | Humidity | Pressure | Rain* | Wind** | Luminosity | Snow |
|---|---|---|---|---|---|---|---|
| 1777533506 | 5.56° C | 49% | 1031.8 hPa | 0 mm | - | 407 W/m² | - |
| 1777533202 | 5.56° C | 50% | 1031.8 hPa | 0 mm | - | 384 W/m² | - |
| 1777532598 | 5° C | 52% | 1032 hPa | 0 mm | - | 51 W/m² | - |
| 1777531986 | 5° C | 54% | 1032.2 hPa | 0 mm | - | 48 W/m² | - |
| 1777531682 | 5° C | 55% | 1032.3 hPa | 0 mm | - | 47 W/m² | - |
| 1777531382 | 3.89° C | 57% | 1032.4 hPa | 0 mm | - | 46 W/m² | - |
| 1777531078 | 3.89° C | 58% | 1032.3 hPa | 0 mm | - | 47 W/m² | - |
| 1777530774 | 3.89° C | 58% | 1032.3 hPa | 0 mm | - | 47 W/m² | - |
| 1777530162 | 2.78° C | 61% | 1032.4 hPa | 0 mm | - | 44 W/m² | - |
| 1777529862 | 2.78° C | 62% | 1032.4 hPa | 0 mm | - | 42 W/m² | - |
| 1777529554 | 2.78° C | 63% | 1032.3 hPa | 0 mm | - | 41 W/m² | - |
| 1777528643 | 1.67° C | 66% | 1032.4 hPa | 0 mm | - | 37 W/m² | - |
| 1777528339 | 1.67° C | 67% | 1032.5 hPa | 0 mm | - | 37 W/m² | - |
| 1777528035 | 0.56° C | 68% | 1032.4 hPa | 0 mm | - | 37 W/m² | - |
| 1777527731 | 0.56° C | 70% | 1032.5 hPa | 0 mm | - | 36 W/m² | - |
| 1777527427 | 0.56° C | 70% | 1032.5 hPa | 0 mm | - | 35 W/m² | - |
| 1777526823 | 0° C | 73% | 1032.5 hPa | 0 mm | - | 34 W/m² | - |
| 1777526515 | 0° C | 74% | 1029.3 hPa | 0 mm | - | 33 W/m² | - |
| 1777526211 | 0° C | 75% | 1032.6 hPa | 0 mm | - | 32 W/m² | - |
| 1777525907 | 0° C | 76% | 1032.6 hPa | 0 mm | - | 31 W/m² | - |
| 1777525607 | -1.11° C | 77% | 1032.5 hPa | 0 mm | - | 30 W/m² | - |
| 1777525303 | -1.11° C | 77% | 1032.4 hPa | 0 mm | - | 29 W/m² | - |
| 1777524995 | -1.11° C | 78% | 1032.5 hPa | 0 mm | - | 28 W/m² | - |
| 1777524692 | -1.11° C | 79% | 1032.6 hPa | 0 mm | - | 26 W/m² | - |
| 1777524387 | -1.11° C | 79% | 1032.6 hPa | 0 mm | - | 25 W/m² | - |
* Rain latest hour (hover to see other rain measurements)
** Current wind speed in m/s (hover to see current wind gust speed)